Regional Weather Roundup
Issued by NWS Lake Charles, LA

Home | Current Version | Previous Version | Text Only | Print | Product List | Glossary On
Versions: 1 2 3 4 5 6 7 8 9 10 11 12 13 14 15 16 17 18 19 20 21 22 23 24 25 26 27 28 29 30 31 32 33 34 35 36 37 38 39 40 41 42 43 44 45 46 47 48 49 50
000
ASUS44 KLCH 250610
RWRLCH
REGIONAL WEATHER ROUNDUP
NATIONAL WEATHER SERVICE LAKE CHARLES LA
100 AM CDT WED MAY 25 2016

Note: "fair" indicates few or no clouds below 12,000 feet with no
significant weather and/or obstructions to visibility.


ACROSS SOUTHEAST TEXAS

CITY           SKY/WX    TMP DP  RH WIND       PRES   REMARKS
BEAUMONT       CLOUDY    79  75  87 SE15      30.03F
BEAUMONT CITY  FAIR      79  74  86 SE10      30.04S
ORANGE         CLOUDY    79  74  85 SE9       30.06F
JASPER         MOCLDY    75  73  91 CALM      30.07S
$$

ACROSS CENTRAL LOUISIANA

CITY           SKY/WX    TMP DP  RH WIND       PRES   REMARKS
LEESVILLE      CLOUDY    75  74  94 S10       30.05F
FULLERTON      FAIR      75  71  87 VRB5      30.03F
ALEXANDRIA INT CLOUDY    73  72  96 SE7       30.04F
ESLER FIELD    MOCLDY    73  70  90 CALM      30.06F
DERIDDER       MOCLDY    76  75  95 SE6       30.07F
OAKDALE        PTCLDY    71  70  98 CALM      30.06F FOG
OPELOUSAS      FAIR      74  72  92 SE8       30.07S
$$

ACROSS SOUTHWEST AND SOUTH CENTRAL LOUISIANA

CITY           SKY/WX    TMP DP  RH WIND       PRES   REMARKS
SULPHUR        MOCLDY    80  75  85 SE13      30.06F
LAKE CHARLES   MOCLDY    78  75  90 S7        30.06S
CHENNAULT INT  CLOUDY    76  74  95 SE5       30.06S
CAMERON PHI    MOCLDY    79  77  94 SE15G23   30.08S
DEQUINCY       FAIR      76  76 100 SE5       30.06S
JENNINGS       FAIR      75  73  94 S6        30.07R
LAFAYETTE      CLEAR     76  73  91 CALM      30.07F
NEW IBERIA     CLEAR     75  73  93 SE8       30.08F
ABBEVILLE      FAIR      76  75  96 SE7       30.07F
PATTERSON      NOT AVBL
SALT POINT       N/A     77  75  93 SE8       30.06F
$$

SELECTED SITES ACROSS THE REGION

CITY           SKY/WX    TMP DP  RH WIND       PRES   REMARKS
HOUSTON BUSH   CLOUDY    78  75  90 SE12      30.00F
HOUSTON HOBBY  MOCLDY    79  76  90 SE8       30.00S
GALVESTON      CLOUDY    79  78  97 SE13      30.03R
COLLEGE STAT   MOCLDY    77  74  90 SE12      29.98F
CONROE         CLOUDY    77  74  90 SE7       30.02S
HUNTSVILLE     MOCLDY    78  73  84 VRB5      30.01S
LUFKIN         CLOUDY    75  73  93 SE8       30.02F
SHREVEPORT     PTCLDY    78  73  84 S7        30.01S
MONROE         PTCLDY    76  69  79 S5        30.07S
NATCHEZ MS     CLEAR     73  68  83 SE8       30.09S
BATON ROUGE    PTCLDY    74  70  87 E5        30.09S
N.O. INTL ARPT PTCLDY    76  71  85 S7        30.11S
SLIDELL        CLEAR     70  68  93 CALM      30.10S
$$

MARINE REPORTS

STATION/POSITION TIME  SKY/WX   TEMP    WIND        PRES    VSBY
                                AIR SEA DIR/SP/G
                 (UTC)          (F)     (DEG/KT/KT) (MB)    (MI)
BUOY 30 S HIGH I 0550            80 80  120/ 14/ 16 1016.0F
WVE H/P(F/S)=  3/ 6

SEA RIM ST PARK  0600            79     130/ 15/ 17 1017.6F
PORT ARTHUR      0500               78  140/  9/ 13 1017.7S
SABINE PASS N    0500            79 81  140/ 15/ 19 1018.8S
TEXAS POINT      NOT AVBL
CALCASIEU PASS   0500            79 81  150/ 15/ 20 1016.9F
LK CHARLES BEACH 0506            78 77              1018.4F
MARSH ISLAND     0500            79                   N/A
FRESH WATER LOCK 0500            79 81  130/ 11/ 16 1018.8F
AMERADA PASS     0500            78 75  130/  5/  8 1018.8S
$$



USA.gov is the U.S. government's official web portal to all federal, state and local government web resources and services.